Weather History for De Kooy, Netherlands

Change the Weather History Date:

Friday, October 18, 2013

  Actual Average Record
Temperature  
Mean Temperature 50 °F -  
Max Temperature 57 °F 52 °F 69 °F (2014)
Min Temperature 42 °F 43 °F 35 °F (2010)
Degree Days  
Heating Degree Days 16    
Moisture  
Dew Point 47 °F    
Average Humidity 91    
Maximum Humidity 100    
Minimum Humidity 66    
Precipitation  
Precipitation 0.00 in 0.12 in - ()
Sea Level Pressure  
Sea Level Pressure 30.03 in    
Wind  
Wind Speed 4 mph ()    
Max Wind Speed 14 mph    
Max Gust Speed -    
Visibility 5.0 miles    
Events Fog    
Averages and records for this station are not official NWS values.
T = Trace of Precipitation, MM = Missing Value Source: Averaged Metar Reports

Daily Weather History Graph

Daily Weather History Graph

Search for Another Location

Airport:

Trip Planner

Search our weather history database for the weather conditions in past years. The results will help you decide how hot, cold, wet, or windy it might be!

Date:

Astronomy

Oct. 18, 2013 Rise Set
Actual Time 8:12 AM CEST 6:38 PM CEST
Civil Twilight 7:37 AM CEST 7:13 PM CEST
Nautical Twilight 6:57 AM CEST 7:53 PM CEST
Astronomical Twilight 6:17 AM CEST 8:33 PM CEST
Moon 6:17 PM CEST (10/18) 7:29 AM CEST (10/18)
Length of Visible Light 11h 36m
Length of Day
10h 26m
Full, 100% of the Moon is Illuminated
Oct 18
Full
Oct 19
Full
Oct 27
Last Quarter
Nov 3
New
Nov 10
First Quarter

Hourly Weather History & Observations

Time (CEST) Temp. Windchill Dew Point Humidity Pressure Visibility Wind Dir Wind Speed Gust Speed Precip Events Conditions
12:25 AM 51.8 °F - 48.2 °F 88% 29.98 in 6.2 mi WNW 5.8 mph - N/A   Unknown
12:45 AM 51.8 °F - 50.0 °F 94% 29.98 in 6.2 mi WNW 5.8 mph - N/A   Mostly Cloudy
12:55 AM 51.8 °F - 50.0 °F 94% 29.98 in 6.2 mi WNW 5.8 mph - N/A   Mostly Cloudy
12:59 AM 51.8 °F - 48.2 °F 88% 29.98 in 6.2 mi WNW 5.8 mph - N/A   Mostly Cloudy
1:25 AM 53.6 °F - 50.0 °F 88% 29.98 in 6.2 mi WNW 5.8 mph - N/A   Mostly Cloudy
1:37 AM 53.6 °F - 50.0 °F 88% 29.98 in 6.2 mi WNW 4.6 mph - N/A   Mostly Cloudy
1:45 AM 53.6 °F - 50.0 °F 88% 29.98 in 6.2 mi WNW 4.6 mph - N/A   Mostly Cloudy
1:55 AM 53.6 °F - 50.0 °F 88% 29.98 in 6.2 mi WNW 5.8 mph - N/A   Mostly Cloudy
2:00 AM 53 °F - 49 °F 84% 30.00 in 16 mi WNW 4.5 mph - -   Partly Cloudy
2:25 AM 51.8 °F - 48.2 °F 88% 29.98 in 6.2 mi WNW 4.6 mph - N/A   Unknown
2:55 AM 51.8 °F - 48.2 °F 88% 30.01 in 6.2 mi NW 3.5 mph - N/A   Mostly Cloudy
3:25 AM 48.2 °F - 46.4 °F 93% 30.01 in 6.2 mi NW 3.5 mph - N/A   Unknown
3:36 AM 48.2 °F - 46.4 °F 93% 30.01 in 4.3 mi WNW 2.3 mph - N/A   Scattered Clouds
3:40 AM 48.2 °F - 46.4 °F 93% 30.01 in 6.2 mi NW 2.3 mph - N/A   Scattered Clouds
3:44 AM 48.2 °F - 46.4 °F 93% 30.01 in - NW 2.3 mph - N/A   Partly Cloudy
3:48 AM 48.2 °F - 48.2 °F 100% 30.01 in - NNW 2.3 mph - N/A   Partly Cloudy
3:55 AM 48.2 °F - 48.2 °F 100% 30.01 in 0.7 mi NNW 2.3 mph - N/A   Mist
3:57 AM 46.4 °F 45.2 °F 46.4 °F 100% 30.01 in - NNW 3.5 mph - N/A Fog Fog
4:01 AM 46.4 °F - 46.4 °F 100% 30.01 in 0.5 mi NNW 2.3 mph - N/A Fog Fog
4:05 AM 46.4 °F - 46.4 °F 100% 30.01 in 0.4 mi NNW 2.3 mph - N/A Fog Fog
4:09 AM 46.4 °F - 44.6 °F 93% 30.01 in 0.7 mi NNW 2.3 mph - N/A   Mist
4:13 AM 46.4 °F - 46.4 °F 100% 30.01 in 1.4 mi NNW 2.3 mph - N/A   Mist
4:17 AM 48.2 °F - 46.4 °F 93% 30.01 in 2.8 mi NNW 1.2 mph - N/A   Mist
4:25 AM 46.4 °F - 46.4 °F 100% 30.01 in 4.3 mi NNW 1.2 mph - N/A   Mist
4:30 AM 48.2 °F - 48.2 °F 100% 30.01 in - NNW 1.2 mph - N/A   Mist
4:34 AM 48.2 °F - 48.2 °F 100% 30.01 in 1.4 mi NNW 1.2 mph - N/A   Mist
4:38 AM 48.2 °F - 48.2 °F 100% 30.01 in 0.5 mi NNW 1.2 mph - N/A Fog Fog
4:42 AM 44.6 °F - 44.6 °F 100% 30.01 in 0.3 mi Calm Calm - N/A Fog Fog
4:55 AM 46.4 °F - 46.4 °F 100% 30.01 in 0.4 mi North 2.3 mph - N/A Fog Fog
4:58 AM 44.6 °F 43.1 °F 44.6 °F 100% 30.01 in 0.5 mi North 3.5 mph - N/A Fog Fog
5:02 AM 44.6 °F 43.1 °F 42.8 °F 93% 30.01 in - North 3.5 mph - N/A Fog Fog
5:06 AM 44.6 °F - 44.6 °F 100% 30.01 in 0.6 mi North 2.3 mph - N/A   Mist
5:10 AM 42.8 °F - 42.8 °F 100% 30.01 in - North 2.3 mph - N/A Fog Fog
5:15 AM 44.6 °F - 42.8 °F 93% 30.01 in 0.6 mi West 1.2 mph - N/A Fog Fog
5:19 AM 44.6 °F - 44.6 °F 100% 30.01 in 1.6 mi SW 1.2 mph - N/A   Mist
5:25 AM 44.6 °F - 42.8 °F 93% 30.01 in 0.8 mi Calm Calm - N/A   Mist
5:28 AM 42.8 °F - 42.8 °F 100% 30.01 in - Calm Calm - N/A Fog Fog
5:32 AM 42.8 °F - 42.8 °F 100% 30.01 in 0.6 mi SW 1.2 mph - N/A Fog Fog
5:40 AM 44.6 °F - 44.6 °F 100% 30.01 in 1.6 mi SSW 2.3 mph - N/A   Mist
5:44 AM 44.6 °F - 44.6 °F 100% 30.01 in 3.7 mi SSW 1.2 mph - N/A   Mist
5:55 AM 42.8 °F - 42.8 °F 100% 30.01 in - Calm Calm - N/A   Mist
5:57 AM 42.8 °F - 42.8 °F 100% 30.01 in 1.1 mi Calm Calm - N/A   Mist
6:01 AM 42.8 °F - 42.8 °F 100% 30.04 in 0.8 mi Calm Calm - N/A   Mist
6:09 AM 44.6 °F - 44.6 °F 100% 30.04 in 1.1 mi Calm Calm - N/A   Mist
6:13 AM 44.6 °F - 44.6 °F 100% 30.04 in 0.7 mi Calm Calm - N/A   Mist
6:25 AM 42.8 °F - 42.8 °F 100% 30.04 in - Calm Calm - N/A Fog Fog
6:42 AM 42.8 °F 41.1 °F 42.8 °F 100% 30.04 in - SSW 3.5 mph - N/A Fog Fog
6:46 AM 42.8 °F 41.1 °F 42.8 °F 100% 30.04 in 0.8 mi SSW 3.5 mph - N/A   Mostly Cloudy
6:55 AM 42.8 °F - 42.8 °F 100% 30.04 in 1.4 mi South 1.2 mph - N/A   Overcast
7:02 AM 42.8 °F - 42.8 °F 100% 30.04 in 2.5 mi South 1.2 mph - N/A   Overcast
7:06 AM 44.6 °F - 44.6 °F 100% 30.04 in 3.1 mi Calm Calm - N/A   Overcast
7:08 AM 44.6 °F - 44.6 °F 100% 30.04 in 3.7 mi Calm Calm - N/A   Overcast
7:16 AM 44.6 °F - 44.6 °F 100% 30.04 in - Calm Calm - N/A   Overcast
7:21 AM 44.6 °F - 44.6 °F 100% 30.04 in 4.3 mi South 1.2 mph - N/A   Overcast
7:25 AM 44.6 °F - 44.6 °F 100% 30.04 in 4.3 mi South 1.2 mph - N/A   Overcast
7:35 AM 44.6 °F - 44.6 °F 100% 30.04 in 6.2 mi South 1.2 mph - N/A   Mostly Cloudy
7:48 AM 46.4 °F - 46.4 °F 100% 30.04 in 6.2 mi Calm Calm - N/A   Mostly Cloudy
7:55 AM 44.6 °F - 44.6 °F 100% 30.04 in 6.2 mi Calm Calm - N/A   Overcast
8:00 AM 45 °F - 45 °F 100% 30.05 in 7 mi Calm Calm - -   Partly Cloudy
8:03 AM 44.6 °F - 44.6 °F 100% 30.04 in 6.2 mi Calm Calm - N/A   Overcast
8:25 AM 48.2 °F - 48.2 °F 100% 30.04 in 6.2 mi South 2.3 mph - N/A   Overcast
8:55 AM 48.2 °F - 48.2 °F 100% 30.06 in 6.2 mi ESE 2.3 mph - N/A   Overcast
9:25 AM 51.8 °F - 50.0 °F 94% 30.06 in 6.2 mi ENE 8.1 mph - N/A   Overcast
9:31 AM 51.8 °F - 50.0 °F 94% 30.06 in 6.2 mi East 8.1 mph - N/A   Partly Cloudy
9:55 AM 53.6 °F - 50.0 °F 88% 30.06 in 6.2 mi East 6.9 mph - N/A   Unknown
10:00 AM 53.6 °F - 50.0 °F 88% 30.06 in 6.2 mi East 8.1 mph - N/A   Scattered Clouds
10:25 AM 53.6 °F - 50.0 °F 88% 30.06 in 6.2 mi ESE 5.8 mph - N/A   Mostly Cloudy
10:55 AM 53.6 °F - 48.2 °F 82% 30.06 in 6.2 mi East 5.8 mph - N/A   Overcast
11:00 AM 54 °F - 48 °F 75% 30.09 in 25 mi East 6.7 mph - -   Scattered Clouds
11:25 AM 55.4 °F - 51.8 °F 88% 30.06 in 6.2 mi East 6.9 mph - N/A   Overcast
11:55 AM 55.4 °F - 50.0 °F 82% 30.09 in 6.2 mi East 8.1 mph - N/A   Overcast
12:25 PM 55.4 °F - 48.2 °F 77% 30.09 in 6.2 mi East 6.9 mph - N/A   Mostly Cloudy
12:55 PM 55.4 °F - 48.2 °F 77% 30.09 in 6.2 mi East 6.9 mph - N/A   Overcast
1:25 PM 55.4 °F - 48.2 °F 77% 30.09 in 6.2 mi ESE 9.2 mph - N/A   Overcast
1:55 PM 55.4 °F - 48.2 °F 77% 30.06 in 6.2 mi ESE 9.2 mph - N/A   Overcast
2:00 PM 56 °F - 48 °F 66% 30.09 in 25 mi ESE 8.9 mph - -   Partly Cloudy
2:25 PM 55.4 °F - 48.2 °F 77% 30.06 in 6.2 mi SE 11.5 mph - N/A   Overcast
2:55 PM 55.4 °F - 46.4 °F 72% 30.06 in 6.2 mi ESE 10.4 mph - N/A   Overcast
3:25 PM 55.4 °F - 48.2 °F 77% 30.06 in 6.2 mi ESE 10.4 mph - N/A   Mostly Cloudy
3:55 PM 55.4 °F - 48.2 °F 77% 30.06 in 6.2 mi ESE 10.4 mph - N/A   Mostly Cloudy
4:25 PM 55.4 °F - 48.2 °F 77% 30.06 in 6.2 mi ESE 11.5 mph - N/A   Overcast
4:55 PM 55.4 °F - 48.2 °F 77% 30.04 in 6.2 mi ESE 9.2 mph - N/A   Overcast
5:00 PM 56 °F - 49 °F 71% 30.06 in 19 mi ESE 8.9 mph - -   Overcast
5:25 PM 55.4 °F - 48.2 °F 77% 30.04 in 6.2 mi ESE 10.4 mph - N/A   Mostly Cloudy
5:28 PM 55.4 °F - 48.2 °F 77% 30.04 in 6.2 mi ESE 10.4 mph - N/A   Mostly Cloudy
5:55 PM 53.6 °F - 48.2 °F 82% 30.04 in 6.2 mi ESE 10.4 mph - N/A   Mostly Cloudy
6:25 PM 53.6 °F - 48.2 °F 82% 30.04 in 6.2 mi ESE 9.2 mph - N/A   Mostly Cloudy
6:55 PM 53.6 °F - 48.2 °F 82% 30.04 in 6.2 mi East 8.1 mph - N/A   Overcast
7:17 PM 53.6 °F - 50.0 °F 88% 30.04 in 6.2 mi East 8.1 mph - N/A   Mostly Cloudy
7:25 PM 53.6 °F - 50.0 °F 88% 30.04 in 6.2 mi ESE 8.1 mph - N/A   Mostly Cloudy
7:55 PM 53.6 °F - 50.0 °F 88% 30.04 in 6.2 mi ESE 8.1 mph - N/A   Overcast
8:00 PM 53 °F - 49 °F 84% 30.05 in 25 mi ESE 6.7 mph - -   Partly Cloudy
8:14 PM 53.6 °F - 50.0 °F 88% 30.04 in 6.2 mi ESE 8.1 mph - N/A   Mostly Cloudy
8:25 PM 53.6 °F - 50.0 °F 88% 30.04 in 6.2 mi ESE 8.1 mph - N/A   Mostly Cloudy
8:48 PM 53.6 °F - 50.0 °F 88% 30.04 in 6.2 mi East 9.2 mph - N/A   Overcast
8:55 PM 53.6 °F - 50.0 °F 88% 30.01 in 6.2 mi East 9.2 mph - N/A   Overcast
9:25 PM 53.6 °F - 50.0 °F 88% 30.01 in 6.2 mi ESE 10.4 mph - N/A   Overcast
9:55 PM 51.8 °F - 50.0 °F 94% 30.01 in 6.2 mi ESE 9.2 mph - N/A   Mostly Cloudy
10:25 PM 51.8 °F - 50.0 °F 94% 30.01 in 6.2 mi ESE 11.5 mph - N/A   Overcast
10:55 PM 51.8 °F - 48.2 °F 88% 30.01 in 6.2 mi ESE 10.4 mph - N/A   Overcast
11:00 PM 52 °F - 49 °F 85% 30.02 in 16 mi ESE 13.4 mph - -   Overcast
11:25 PM 51.8 °F - 48.2 °F 88% 30.01 in 6.2 mi ESE 13.8 mph - N/A   Overcast
11:55 PM 51.8 °F - 48.2 °F 88% 29.98 in 6.2 mi ESE 13.8 mph - N/A   Overcast